User: anonymous   Login
Location: Key Biscayne
(25.6930°N, 80.1630°W)
Time: 13:00:10
(UTC-04:00)
Language:

CZ-2D R/B - Orbit

View from above orbital plane
View from above orbital plane
View from above satellite
View from above satellite

Ground track
Ground track

The orbit data is extracted from the following two-line orbital elements,

1 28738U 05024B   16181.66824659  .00000480  00000-0  32889-4 0  9998
2 28738  97.5409 218.5898 0013638 131.8842 228.3553 15.10588119602581
Epoch (UTC): 29 June 2016 16:02:16
Eccentricity: 0.0013638
inclination: 97.5409°
perigee height: 525 km
apogee height: 544 km
right ascension of ascending node: 218.5898°
argument of perigee: 131.8842°
revolutions per day: 15.10588119
mean anomaly at epoch: 228.3553°
orbit number at epoch: 60258

The dashed part of the orbit path shows where the satellite is in the earth's shadow,  

DLR